This is the latest recevied weather packets stored in our database for station/object KE0FIN. If no packets are shown the sender has not sent any weather packets the latest 10 day(s).
| Time | Temp. | Humidity | Pressure | Rain* | Wind** | Luminosity | Snow |
|---|---|---|---|---|---|---|---|
| 1777685644 | 12.78° C | 64% | 1069.4 hPa | 0 mm | - | 0 W/m² | - |
| 1777685341 | 13.33° C | 63% | 1069.4 hPa | 0 mm | - | 1 W/m² | - |
| 1777685039 | 13.33° C | 63% | 1069.2 hPa | 0 mm | - | 1 W/m² | - |
| 1777684736 | 13.33° C | 61% | 1069.3 hPa | 0 mm | - | 2 W/m² | - |
| 1777684432 | 13.89° C | 61% | 1069.3 hPa | 0 mm | - | 3 W/m² | - |
| 1777684129 | 13.89° C | 59% | 1069.2 hPa | 0 mm | - | 5 W/m² | - |
| 1777683826 | 13.89° C | 58% | 1069.4 hPa | 0 mm | - | 9 W/m² | - |
| 1777683522 | 13.89° C | 58% | 1069.5 hPa | 0 mm | - | 10 W/m² | - |
| 1777683221 | 13.89° C | 57% | 1069.3 hPa | 0 mm | - | 10 W/m² | - |
| 1777682918 | 14.44° C | 57% | 1069.4 hPa | 0 mm | - | 10 W/m² | - |
| 1777682613 | 14.44° C | 56% | 1069.4 hPa | 0 mm | - | 13 W/m² | - |
| 1777682312 | 14.44° C | 56% | 1068.9 hPa | 0 mm | - | 16 W/m² | - |
| 1777682008 | 14.44° C | 55% | 1068.8 hPa | 0 mm | - | 20 W/m² | - |
| 1777681704 | 15° C | 54% | 1069 hPa | 0 mm | - | 28 W/m² | - |
| 1777681402 | 15° C | 53% | 1068.9 hPa | 0 mm | - | 29 W/m² | - |
| 1777681099 | 15.56° C | 54% | 1068.9 hPa | 0 mm | - | 43 W/m² | - |
| 1777680797 | 15.56° C | 54% | 1068.9 hPa | 0 mm | - | 43 W/m² | - |
| 1777680494 | 15.56° C | 53% | 1069.2 hPa | 0 mm | - | 54 W/m² | - |
| 1777680192 | 15° C | 53% | 1068.9 hPa | 0 mm | - | 47 W/m² | - |
| 1777679888 | 15° C | 54% | 1068.9 hPa | 0 mm | - | 50 W/m² | - |
| 1777679584 | 15° C | 53% | 1069 hPa | 0 mm | - | 34 W/m² | - |
| 1777679279 | 15° C | 53% | 1069 hPa | 0 mm | - | 37 W/m² | - |
| 1777678977 | 15° C | 54% | 1068.9 hPa | 0 mm | - | 34 W/m² | - |
| 1777678675 | 15° C | 55% | 1069 hPa | 0 mm | - | 34 W/m² | - |
| 1777678372 | 15° C | 53% | 1069.2 hPa | 0 mm | - | 35 W/m² | - |
* Rain latest hour (hover to see other rain measurements)
** Current wind speed in m/s (hover to see current wind gust speed)